Wind_Speed
42 43 44 45 45 47 47 48 47 47 48 48 47 47 46 47 47 47 47 48 50 51 53 55 56 57 59 61 63 64 66 67 69 69 69 69 68 68 68 68 68 68 68
43 43 44 45 46 45 46 46 47 47 46 47 47 48 48 48 48 48 49 51 53 55 56 57 58 60 62 64 65 67 67 66 65 64 64 64 63 63 62 62 62 61 61
44 45 45 45 45 45 45 46 46 45 45 46 47 48 49 49 50 51 53 55 57 58 59 60 61 63 63 63 63 62 61 59 59 58 57 57 57 56 55 55 55 55 54
42 42 42 42 44 43 43 43 44 45 45 46 47 48 50 51 52 53 55 56 57 59 60 60 60 61 60 58 56 55 55 54 53 52 52 51 51 51 50 50 49 48 46
40 41 41 41 41 42 43 44 44 45 45 46 46 48 49 51 52 54 56 57 58 58 58 57 56 56 54 53 52 50 48 47 47 46 45 45 45 44 43 42 41 39 38
37 38 39 39 40 41 42 42 43 44 45 45 46 47 49 50 52 53 54 54 54 54 53 53 52 50 48 46 45 43 42 41 40 40 39 38 37 36 36 35 34 32 31
34 35 37 37 38 39 40 41 42 43 44 45 46 48 49 50 51 51 51 50 50 50 48 47 46 44 42 41 39 37 36 34 33 33 32 31 31 31 30 29 28 27 27
31 32 34 35 36 37 37 38 39 41 42 43 44 46 47 47 48 48 47 47 47 45 44 43 41 38 36 34 32 30 29 28 27 26 26 26 26 25 25 24 24 24 24
28 29 31 32 33 34 35 36 37 39 40 41 42 43 43 43 44 44 43 42 40 38 36 33 31 28 26 24 23 22 21 20 20 21 21 21 20 20 21 21 21 21 22
26 28 29 30 30 31 32 33 34 35 36 37 38 38 39 39 38 37 35 33 31 28 25 23 21 18 17 16 16 15 15 15 16 16 16 16 17 18 19 19 20 21 22
24 25 26 26 27 27 28 30 31 32 33 33 34 33 33 32 31 28 26 23 21 19 17 15 13 12 12 12 12 12 12 13 13 13 14 15 16 17 18 19 20 21 22
22 23 23 23 24 25 26 27 28 29 29 28 28 27 27 26 23 20 17 15 13 12 11 10 9 9 9 9 10 11 12 12 13 13 14 14 16 17 18 19 20 21 21
20 20 21 21 22 23 23 24 25 25 24 24 23 22 20 18 16 14 12 10 10 9 8 8 8 8 9 10 11 12 13 13 13 14 14 15 17 18 19 19 20 20 20
18 19 19 19 19 20 21 21 22 21 21 20 18 17 15 14 12 11 9 8 8 8 8 9 9 9 10 11 12 13 14 14 14 15 15 16 18 18 18 19 19 20 20
17 18 17 17 18 18 18 19 19 18 17 16 14 12 11 10 10 9 8 8 8 8 8 9 10 10 11 11 12 13 14 14 14 15 15 17 17 18 18 18 19 19 19
16 15 16 16 16 16 16 16 16 15 14 12 11 9 9 9 9 8 8 8 8 9 9 10 10 11 11 12 12 13 14 14 14 14 15 17 17 17 17 18 18 18 18
14 14 14 14 14 13 13 13 13 12 10 9 8 7 7 8 8 8 8 8 8 9 10 10 11 11 11 12 12 12 13 14 15 15 16 17 17 17 17 17 17 18 18
12 12 12 12 11 11 11 11 10 9 8 6 6 5 6 6 7 7 8 8 8 9 9 10 11 11 11 11 12 12 14 15 16 16 16 17 17 17 16 16 17 17 17
10 10 10 10 9 8 9 8 7 7 6 5 5 5 5 6 6 7 7 7 8 8 9 10 10 11 11 12 13 13 14 15 16 16 16 17 17 16 16 16 16 16 17
8 8 8 7 6 7 7 6 6 5 5 5 5 5 5 5 6 6 6 7 7 8 9 10 10 11 11 12 13 14 15 16 17 16 16 17 16 16 16 15 15 16 16
6 6 6 5 5 5 5 5 4 4 4 4 4 5 5 5 5 6 6 6 7 8 9 9 10 11 11 12 13 14 15 16 16 16 16 16 16 16 16 15 15 15 16
5 4 4 4 4 4 3 3 3 3 3 4 4 4 5 5 5 5 6 6 7 8 8 9 10 11 12 12 14 15 15 16 16 16 16 16 16 16 16 15 15 15 16
4 4 4 4 4 3 3 2 3 3 3 3 3 4 4 4 5 5 6 6 7 7 8 9 10 11 12 13 14 15 15 16 16 16 16 16 15 15 15 15 15 15 15
4 4 4 4 3 3 2 2 2 2 2 2 3 4 4 4 5 5 6 6 6 7 8 9 10 11 12 13 14 15 15 15 16 16 16 15 15 15 15 15 15 15 15
5 4 4 3 3 2 2 2 1 1 1 2 2 3 3 4 4 5 5 6 6 7 8 9 10 11 12 13 14 14 15 15 15 15 15 15 15 15 15 15 15 15 15
5 4 4 3 2 2 1 1 1 1 1 1 2 2 3 3 3 4 5 5 6 7 8 9 10 11 12 13 14 14 14 15 15 16 16 15 15 15 15 16 16 16 16
Wind_Direction
277 279 280 281 282 283 284 285 286 285 286 286 285 283 282 281 282 282 281 280 281 283 284 283 282 283 283 282 282 282 282 282 282 282 282 283 283 283 283 283 283 283 283
277 278 279 280 281 282 282 282 282 280 280 281 280 280 280 282 282 281 282 282 283 284 284 283 282 282 282 282 283 283 283 284 283 283 285 285 285 285 285 285 285 285 286
275 276 277 279 280 279 279 279 278 278 279 280 281 280 282 283 283 283 283 284 285 285 285 283 283 284 284 284 284 284 285 285 286 286 287 287 287 287 287 287 287 288 288
273 276 277 277 277 275 275 275 276 278 279 280 281 281 282 282 283 284 285 285 286 286 286 286 286 287 286 286 287 287 287 287 287 288 288 288 289 289 289 289 290 291 292
273 274 275 276 274 274 275 276 278 279 280 281 281 282 283 285 286 286 286 287 288 289 289 288 288 289 289 289 289 289 289 289 289 290 291 291 292 293 294 294 293 294 294
272 273 273 274 275 276 278 279 280 281 282 284 284 285 287 288 288 289 289 290 290 291 291 290 290 290 291 291 292 292 291 292 292 292 294 295 297 298 299 299 299 299 299
272 271 271 273 275 277 279 281 282 283 284 286 287 289 290 291 292 292 292 292 293 293 293 293 293 293 293 293 293 294 295 295 295 296 298 300 301 302 303 304 305 305 305
272 273 275 276 279 281 282 283 285 286 288 291 292 293 294 294 295 295 294 295 296 296 296 296 296 295 295 295 296 296 296 297 298 300 303 305 305 307 308 308 309 309 309
275 277 279 281 284 285 287 289 291 293 295 296 297 298 298 298 298 298 298 298 298 299 299 300 301 301 302 301 302 302 303 305 307 308 310 311 312 314 314 315 315 314 314
281 283 285 287 288 290 292 294 296 297 298 299 300 301 302 302 302 302 302 302 303 304 304 306 308 310 311 311 312 314 316 318 320 320 320 321 323 323 324 323 322 322 321
287 289 290 292 294 297 299 301 303 303 304 304 304 305 306 307 308 308 308 309 310 311 315 318 320 322 325 327 330 334 335 337 338 338 338 337 336 334 332 332 331 330 329
291 293 295 298 300 302 304 306 308 309 309 309 310 311 313 315 317 317 320 323 326 330 334 339 344 348 351 352 353 354 355 357 356 354 351 350 348 345 343 341 340 340 339
295 296 298 301 304 306 307 310 313 314 315 317 319 320 324 327 330 333 337 344 351 358 6 11 13 14 14 11 11 11 12 10 7 4 1 357 354 351 349 348 349 349 349
298 300 302 304 306 309 311 314 317 319 322 324 327 331 334 338 342 348 355 2 10 18 22 26 27 28 27 22 20 18 16 13 12 10 5 1 359 357 356 356 356 355 355
301 301 302 304 307 310 314 318 322 325 330 333 336 340 345 349 354 1 12 23 34 38 36 34 37 37 31 26 21 18 15 14 14 11 9 5 4 3 2 3 3 2 3
301 303 305 306 309 313 318 322 325 329 335 339 342 348 356 5 14 21 31 40 45 46 44 44 42 36 30 25 21 19 18 18 17 15 12 9 9 8 8 8 8 9 11
302 306 308 309 312 317 321 325 330 334 340 344 348 355 8 18 25 32 42 48 52 52 50 46 39 33 29 27 25 24 23 22 20 17 14 13 13 13 13 13 15 17 18
304 307 310 312 314 318 325 329 335 342 349 355 2 11 21 29 36 43 49 53 54 52 49 44 37 33 32 31 29 28 25 23 20 18 16 16 16 17 17 19 21 22 25
304 307 311 314 315 321 329 336 345 355 4 15 27 34 38 43 46 50 54 54 52 48 43 38 35 35 33 31 28 25 23 21 19 18 18 18 20 22 23 24 25 27 30
307 311 315 317 320 327 335 344 357 9 21 33 42 46 49 51 51 51 53 52 47 42 38 35 35 34 31 28 25 23 20 19 19 20 21 22 24 26 28 30 31 33 35
318 322 326 327 327 334 343 354 8 23 38 49 51 53 53 50 47 46 46 45 41 37 34 35 34 30 27 25 22 20 19 19 20 22 23 25 27 29 31 34 36 38 40
334 338 338 337 339 343 351 7 23 39 50 55 55 54 51 49 45 43 43 41 39 36 35 35 30 26 25 23 21 19 19 20 22 23 25 27 29 32 35 38 40 42 44
349 348 348 347 346 352 1 19 35 47 54 54 51 48 47 45 40 37 35 35 36 37 36 31 26 25 24 22 20 20 21 21 22 24 27 29 32 34 38 41 43 45 48
348 341 343 344 341 343 355 10 23 37 48 52 49 44 39 36 34 33 33 36 38 39 34 28 26 25 23 22 22 23 23 23 24 26 29 32 34 37 40 43 46 48 51
349 339 334 334 337 341 346 358 8 19 36 47 46 38 33 33 35 38 40 41 40 35 30 28 28 26 24 23 24 24 24 26 27 29 32 34 37 41 44 47 49 52 54
1 354 347 341 344 352 3 13 19 31 51 62 56 45 39 40 45 47 46 43 40 34 31 30 28 26 25 24 25 26 27 30 31 34 36 39 42 46 48 51 53 55 56
Height
5809 5808 5806 5805 5804 5802 5800 5798 5795 5793 5790 5788 5786 5784 5782 5780 5777 5775 5773 5770 5767 5764 5760 5757 5753 5748 5744 5739 5734 5728 5723 5717 5711 5704 5698 5693 5688 5683 5678 5674 5669 5665 5660
5800 5798 5797 5795 5794 5792 5790 5787 5785 5783 5780 5778 5775 5772 5770 5768 5765 5762 5760 5757 5753 5750 5746 5741 5737 5732 5727 5721 5716 5710 5704 5698 5692 5686 5680 5675 5670 5666 5662 5657 5652 5647 5642
5790 5789 5787 5785 5784 5782 5779 5777 5775 5772 5769 5767 5764 5761 5759 5756 5753 5750 5746 5742 5738 5734 5730 5725 5720 5714 5709 5703 5698 5692 5686 5681 5676 5671 5665 5659 5655 5650 5647 5642 5637 5632 5627
5780 5779 5777 5775 5773 5771 5769 5766 5764 5761 5758 5755 5753 5750 5747 5743 5740 5736 5732 5727 5723 5718 5713 5707 5702 5697 5691 5686 5681 5676 5671 5666 5661 5656 5651 5646 5641 5637 5633 5628 5624 5619 5615
5770 5768 5767 5765 5763 5761 5758 5756 5753 5750 5747 5744 5741 5737 5734 5730 5726 5722 5717 5712 5707 5702 5696 5690 5685 5680 5675 5670 5666 5661 5656 5652 5648 5643 5639 5634 5630 5625 5621 5616 5613 5608 5604
5759 5758 5756 5755 5753 5750 5748 5745 5742 5739 5736 5732 5729 5725 5721 5717 5713 5708 5703 5698 5692 5686 5681 5675 5670 5666 5661 5656 5653 5648 5644 5640 5636 5632 5628 5624 5620 5616 5611 5607 5603 5600 5596
5750 5748 5747 5745 5742 5740 5737 5735 5732 5729 5725 5722 5718 5713 5709 5704 5700 5695 5689 5684 5678 5672 5667 5661 5656 5652 5648 5645 5641 5637 5634 5631 5627 5624 5620 5616 5612 5608 5604 5600 5596 5592 5589
5741 5739 5737 5736 5733 5731 5728 5725 5722 5718 5715 5711 5706 5702 5697 5692 5687 5682 5676 5670 5665 5659 5654 5649 5644 5640 5637 5633 5630 5628 5626 5623 5620 5617 5614 5610 5607 5603 5599 5596 5592 5588 5584
5733 5731 5729 5727 5724 5722 5719 5716 5712 5709 5705 5701 5696 5691 5686 5680 5675 5669 5663 5658 5653 5648 5643 5638 5634 5631 5628 5625 5623 5622 5620 5617 5615 5612 5609 5606 5603 5599 5595 5592 5588 5584 5580
5725 5723 5721 5719 5717 5714 5711 5707 5704 5700 5696 5691 5686 5681 5675 5670 5664 5658 5653 5648 5643 5639 5635 5631 5628 5626 5624 5621 5620 5618 5616 5613 5611 5609 5606 5603 5600 5596 5593 5589 5585 5581 5576
5718 5716 5714 5712 5709 5706 5703 5700 5696 5692 5687 5682 5677 5672 5667 5661 5656 5650 5645 5641 5637 5634 5630 5627 5625 5623 5621 5619 5617 5616 5614 5611 5609 5607 5604 5601 5598 5594 5591 5587 5582 5578 5573
5712 5710 5708 5706 5703 5700 5697 5693 5689 5685 5680 5675 5670 5665 5659 5654 5649 5645 5641 5637 5633 5631 5628 5626 5624 5622 5620 5619 5617 5615 5613 5611 5608 5606 5603 5600 5597 5593 5589 5585 5580 5575 5570
5706 5704 5702 5700 5697 5694 5691 5687 5683 5678 5674 5669 5664 5659 5654 5650 5646 5642 5638 5635 5633 5630 5628 5626 5624 5623 5621 5620 5618 5615 5613 5611 5608 5606 5603 5600 5596 5592 5588 5584 5579 5574 5569
5701 5699 5697 5694 5692 5689 5685 5682 5678 5673 5669 5664 5660 5656 5652 5648 5644 5641 5638 5635 5633 5631 5629 5628 5626 5624 5623 5621 5619 5617 5614 5612 5609 5606 5603 5600 5596 5592 5588 5583 5578 5573 5568
5696 5694 5692 5689 5687 5684 5681 5677 5673 5669 5665 5662 5658 5654 5651 5647 5644 5641 5638 5636 5634 5632 5631 5629 5628 5626 5625 5623 5621 5618 5616 5613 5610 5607 5604 5600 5596 5592 5588 5583 5578 5573 5568
5691 5689 5687 5685 5682 5680 5677 5673 5670 5666 5663 5660 5657 5654 5651 5648 5645 5642 5640 5638 5636 5635 5633 5632 5630 5628 5627 5624 5622 5620 5617 5614 5611 5608 5604 5601 5596 5592 5588 5584 5579 5574 5569
5687 5685 5683 5681 5678 5676 5673 5670 5668 5665 5662 5659 5657 5654 5652 5649 5647 5644 5642 5641 5639 5637 5636 5634 5632 5630 5628 5626 5624 5621 5619 5616 5612 5609 5605 5601 5597 5593 5589 5584 5580 5575 5571
5683 5681 5679 5677 5675 5673 5671 5668 5666 5663 5661 5659 5657 5655 5652 5650 5648 5646 5645 5643 5641 5640 5638 5636 5634 5632 5630 5628 5625 5622 5620 5617 5613 5609 5606 5602 5597 5594 5589 5585 5581 5577 5573
5679 5678 5676 5674 5672 5671 5669 5667 5664 5662 5660 5658 5657 5655 5653 5652 5650 5648 5647 5645 5644 5642 5640 5638 5636 5634 5631 5629 5626 5624 5621 5618 5614 5610 5606 5602 5598 5595 5591 5587 5583 5579 5575
5676 5675 5673 5672 5670 5669 5667 5665 5664 5662 5660 5659 5657 5656 5655 5653 5652 5650 5648 5647 5645 5644 5642 5640 5638 5635 5633 5630 5628 5625 5622 5618 5615 5611 5607 5604 5600 5596 5592 5589 5585 5582 5578
5673 5672 5671 5670 5669 5667 5666 5665 5663 5662 5661 5659 5658 5657 5656 5654 5653 5651 5650 5649 5647 5645 5643 5641 5639 5637 5634 5632 5629 5626 5623 5620 5616 5612 5609 5605 5601 5598 5594 5591 5588 5584 5581
5671 5670 5670 5669 5668 5666 5665 5664 5663 5662 5661 5660 5659 5658 5657 5656 5654 5653 5651 5650 5648 5647 5645 5643 5641 5638 5636 5633 5630 5627 5624 5621 5617 5614 5610 5607 5603 5600 5596 5593 5590 5587 5584
5670 5669 5669 5668 5667 5666 5665 5664 5663 5662 5661 5660 5660 5659 5658 5657 5655 5654 5653 5651 5650 5648 5646 5644 5642 5639 5637 5634 5631 5628 5625 5622 5619 5615 5612 5608 5605 5602 5599 5596 5593 5590 5587
5669 5669 5668 5667 5666 5666 5665 5664 5663 5662 5662 5661 5660 5659 5658 5657 5656 5655 5654 5652 5651 5649 5647 5645 5643 5641 5638 5636 5633 5630 5626 5623 5620 5617 5613 5610 5607 5604 5601 5598 5595 5593 5590
5669 5668 5667 5667 5666 5665 5664 5664 5663 5662 5662 5661 5660 5660 5659 5658 5657 5656 5655 5653 5652 5650 5649 5647 5644 5642 5640 5637 5634 5631 5628 5625 5622 5619 5616 5612 5609 5607 5604 5601 5598 5596 5593
5668 5667 5667 5666 5665 5665 5664 5663 5663 5662 5662 5661 5661 5660 5659 5659 5658 5657 5656 5654 5653 5652 5650 5648 5646 5644 5641 5639 5636 5633 5630 5627 5624 5621 5618 5615 5612 5609 5607 5604 5602 5599 5597